Hourly Weather Murakhivka

Today, 28 September, Tuesday

Time Temperature Precipitation Wind Pressure Humidity
00:00 +11°C° 0 mm 3 mps 760 mmHg 63%
01:00 +11°C° 0 mm 3 mps 760 mmHg 63%
02:00 +10°C° 0 mm 3 mps 760 mmHg 65%
03:00 +11°C° 0 mm 3 mps 760 mmHg 65%
04:00 +11°C° 0 mm 3 mps 760 mmHg 66%
05:00 +11°C° 0 mm 3 mps 760 mmHg 67%
06:00 +11°C° 0 mm 3 mps 761 mmHg 67%
07:00 +11°C° 0 mm 4 mps 761 mmHg 67%
08:00 +12°C° 0 mm 4 mps 761 mmHg 67%
09:00 +13°C° 0 mm 4 mps 761 mmHg 60%
10:00 +14°C° 0 mm 4 mps 761 mmHg 54%
11:00 +15°C° 0 mm 4 mps 761 mmHg 48%
12:00 +17°C° 0 mm 3 mps 761 mmHg 45%
13:00 +17°C° 0 mm 3 mps 761 mmHg 42%
14:00 +18°C° 0 mm 3 mps 761 mmHg 40%
15:00 +17°C° 0 mm 3 mps 761 mmHg 42%
16:00 +17°C° 0 mm 2 mps 762 mmHg 44%
17:00 +16°C° 0 mm 2 mps 762 mmHg 46%
18:00 +16°C° 0 mm 2 mps 762 mmHg 46%
19:00 +14°C° 0 mm 3 mps 762 mmHg 47%
20:00 +14°C° 0 mm 3 mps 763 mmHg 47%
21:00 +14°C° 0 mm 3 mps 763 mmHg 48%
22:00 +13°C° 0 mm 3 mps 763 mmHg 48%
23:00 +13°C° 0 mm 3 mps 763 mmHg 48%

Tomorrow, 29 September, Wednesday

Time Temperature Precipitation Wind Pressure Humidity
00:00 +13°C° 0 mm 3 mps 763 mmHg 51%
01:00 +13°C° 0 mm 3 mps 763 mmHg 54%
02:00 +12°C° 0 mm 3 mps 763 mmHg 57%
03:00 +12°C° 0 mm 4 mps 763 mmHg 60%
04:00 +12°C° 0 mm 4 mps 764 mmHg 63%
05:00 +11°C° 0 mm 4 mps 764 mmHg 66%
06:00 +12°C° 0 mm 5 mps 764 mmHg 66%
07:00 +12°C° 0 mm 5 mps 764 mmHg 66%
08:00 +11°C° 0 mm 6 mps 765 mmHg 65%
09:00 +14°C° 0 mm 6 mps 765 mmHg 58%
10:00 +15°C° 0 mm 6 mps 765 mmHg 51%
11:00 +17°C° 0 mm 6 mps 765 mmHg 44%
12:00 +17°C° 0 mm 6 mps 765 mmHg 43%
13:00 +17°C° 0 mm 5 mps 765 mmHg 41%
14:00 +17°C° 0 mm 5 mps 764 mmHg 39%
15:00 +16°C° 0 mm 5 mps 765 mmHg 40%
16:00 +16°C° 0 mm 5 mps 765 mmHg 41%
17:00 +15°C° 0 mm 5 mps 765 mmHg 42%
18:00 +15°C° 0 mm 5 mps 765 mmHg 43%
19:00 +14°C° 0 mm 5 mps 766 mmHg 44%
20:00 +14°C° 0 mm 6 mps 766 mmHg 45%
21:00 +12°C° 0 mm 5 mps 766 mmHg 50%
22:00 +11°C° 0 mm 4 mps 766 mmHg 54%
23:00 +10°C° 0 mm 4 mps 767 mmHg 59%

Day after tomorrow, 30 September, Thursday

Time Temperature Precipitation Wind Pressure Humidity
00:00 +8°C° 0 mm 4 mps 767 mmHg 60%
01:00 +8°C° 0 mm 4 mps 767 mmHg 62%
02:00 +8°C° 0 mm 3 mps 767 mmHg 63%
03:00 +8°C° 0 mm 3 mps 767 mmHg 64%
04:00 +7°C° 0 mm 3 mps 767 mmHg 64%
05:00 +7°C° 0 mm 3 mps 767 mmHg 64%
06:00 +7°C° 0 mm 4 mps 767 mmHg 58%
07:00 +9°C° 0 mm 5 mps 767 mmHg 52%
08:00 +10°C° 0 mm 5 mps 768 mmHg 46%
09:00 +12°C° 0 mm 5 mps 768 mmHg 41%
10:00 +13°C° 0 mm 5 mps 768 mmHg 36%
11:00 +15°C° 0 mm 6 mps 767 mmHg 31%
12:00 +15°C° 0 mm 5 mps 767 mmHg 29%
13:00 +16°C° 0 mm 5 mps 767 mmHg 28%
14:00 +16°C° 0 mm 5 mps 767 mmHg 26%
15:00 +16°C° 0 mm 5 mps 767 mmHg 28%
16:00 +15°C° 0 mm 4 mps 767 mmHg 29%
17:00 +14°C° 0 mm 4 mps 767 mmHg 31%
18:00 +13°C° 0 mm 4 mps 767 mmHg 34%
19:00 +12°C° 0 mm 3 mps 767 mmHg 36%
20:00 +11°C° 0 mm 3 mps 767 mmHg 39%
21:00 +10°C° 0 mm 3 mps 768 mmHg 41%
22:00 +10°C° 0 mm 3 mps 768 mmHg 43%
23:00 +9°C° 0 mm 3 mps 768 mmHg 45%

1 October, Friday

Time Temperature Precipitation Wind Pressure Humidity
00:00 +9°C° 0 mm 3 mps 768 mmHg 47%
01:00 +9°C° 0 mm 3 mps 768 mmHg 50%
02:00 +8°C° 0 mm 3 mps 768 mmHg 52%
03:00 +8°C° 0 mm 3 mps 768 mmHg 54%
04:00 +8°C° 0 mm 3 mps 768 mmHg 56%
05:00 +7°C° 0 mm 3 mps 768 mmHg 58%
06:00 +8°C° 0 mm 4 mps 769 mmHg 53%
07:00 +10°C° 0 mm 4 mps 769 mmHg 49%
08:00 +11°C° 0 mm 4 mps 769 mmHg 45%
09:00 +13°C° 0 mm 5 mps 769 mmHg 40%
10:00 +14°C° 0 mm 5 mps 769 mmHg 35%
11:00 +15°C° 0 mm 5 mps 769 mmHg 31%
12:00 +16°C° 0 mm 5 mps 769 mmHg 30%
13:00 +16°C° 0 mm 5 mps 769 mmHg 28%
14:00 +17°C° 0 mm 5 mps 768 mmHg 27%
15:00 +16°C° 0 mm 5 mps 768 mmHg 29%
16:00 +15°C° 0 mm 4 mps 768 mmHg 31%
17:00 +14°C° 0 mm 4 mps 768 mmHg 32%
18:00 +13°C° 0 mm 4 mps 768 mmHg 35%
19:00 +12°C° 0 mm 3 mps 768 mmHg 38%
20:00 +11°C° 0 mm 3 mps 769 mmHg 40%
21:00 +10°C° 0 mm 3 mps 769 mmHg 42%
22:00 +10°C° 0 mm 3 mps 768 mmHg 44%
23:00 +9°C° 0 mm 3 mps 768 mmHg 46%

2 October, Saturday

Time Temperature Precipitation Wind Pressure Humidity
00:00 +9°C° 0 mm 3 mps 768 mmHg 46%
01:00 +8°C° 0 mm 3 mps 768 mmHg 47%
02:00 +8°C° 0 mm 3 mps 768 mmHg 48%
03:00 +8°C° 0 mm 3 mps 768 mmHg 50%
04:00 +8°C° 0 mm 3 mps 768 mmHg 52%
05:00 +7°C° 0 mm 3 mps 767 mmHg 54%
06:00 +8°C° 0 mm 4 mps 767 mmHg 50%
07:00 +9°C° 0 mm 5 mps 767 mmHg 46%
08:00 +10°C° 0 mm 6 mps 767 mmHg 42%
09:00 +13°C° 0 mm 6 mps 767 mmHg 37%
10:00 +14°C° 0 mm 6 mps 767 mmHg 32%
11:00 +16°C° 0 mm 6 mps 767 mmHg 27%
12:00 +17°C° 0 mm 6 mps 766 mmHg 25%
13:00 +17°C° 0 mm 6 mps 766 mmHg 23%
14:00 +19°C° 0 mm 6 mps 765 mmHg 22%
15:00 +17°C° 0 mm 6 mps 765 mmHg 24%
16:00 +16°C° 0 mm 5 mps 765 mmHg 26%
17:00 +15°C° 0 mm 5 mps 765 mmHg 27%
18:00 +14°C° 0 mm 4 mps 765 mmHg 31%
19:00 +12°C° 0 mm 4 mps 765 mmHg 35%
20:00 +11°C° 0 mm 3 mps 765 mmHg 39%
21:00 +10°C° 0 mm 3 mps 765 mmHg 41%
22:00 +10°C° 0 mm 3 mps 765 mmHg 43%
23:00 +9°C° 0 mm 3 mps 765 mmHg 45%

3 October, Sunday

Time Temperature Precipitation Wind Pressure Humidity
00:00 +9°C° 0 mm 3 mps 765 mmHg 46%
01:00 +9°C° 0 mm 3 mps 765 mmHg 48%
02:00 +8°C° 0 mm 4 mps 764 mmHg 49%
03:00 +7°C° 0 mm 4 mps 764 mmHg 52%
04:00 +7°C° 0 mm 4 mps 764 mmHg 54%
05:00 +7°C° 0 mm 4 mps 764 mmHg 57%
06:00 +8°C° 0 mm 4 mps 764 mmHg 53%
07:00 +10°C° 0 mm 5 mps 764 mmHg 50%
08:00 +11°C° 0 mm 6 mps 764 mmHg 46%
09:00 +13°C° 0 mm 6 mps 764 mmHg 42%
10:00 +15°C° 0 mm 6 mps 763 mmHg 39%
11:00 +17°C° 0 mm 7 mps 763 mmHg 35%
12:00 +17°C° 0 mm 7 mps 763 mmHg 33%
13:00 +19°C° 0 mm 6 mps 762 mmHg 30%
14:00 +19°C° 0 mm 6 mps 762 mmHg 28%
15:00 +17°C° 0 mm 6 mps 762 mmHg 32%
16:00 +17°C° 0 mm 5 mps 762 mmHg 36%
17:00 +16°C° 0 mm 5 mps 761 mmHg 40%
18:00 +15°C° 0 mm 5 mps 761 mmHg 44%
19:00 +15°C° 0 mm 5 mps 761 mmHg 48%
20:00 +14°C° 0 mm 4 mps 762 mmHg 51%
21:00 +14°C° 0 mm 4 mps 761 mmHg 55%
22:00 +13°C° 0 mm 4 mps 761 mmHg 60%
23:00 +12°C° 0 mm 4 mps 761 mmHg 64%
Show more

We Need Your Consent

Meteoprog and our Service Providers may store and access personal data such as cookies, device identifiers or other similar technologies on your device and process such data to personalise content and ads, as well as provide social media features and to analyse the traffic.

  • Store and/or access information on your device

    Cookies, device identifiers or other information can be stored or accessed on your device for the purposes indicated above.

  • Personalised ads and content, ad and content measurement, audience insights, and products development

    Ads and content can be personalised based on a profile. More data can be added to better personalise ads and content. Ad and content performance can be measured. Insights about the audience who saw the ads and content can be derived. Such data can be used to develop or improve user’s experience, systems and software.

By clicking ‘I Agree’ you will allow the use of indicated cookies, device identifiers, web beacons or other similar technologies. Your settings can be changed in the browser on your device.

For certain purposes, legitimate interests may be relied on, rather than consent. You can read more about this in our Privacy and Cookie Policy.